Terminal Aerodrome Forecast
Issued by NWS Upton, NY

Current Version | Previous Version | Text Only | Print | Product List | Glossary On
Versions: 1 2 3 4 5 6 7 8 9 10 11 12 13 14 15 16 17 18 19 20 21 22 23 24 25 26 27 28 29 30
000
FTUS41 KOKX 271100
TAFLGA
TAF
KLGA 271132Z 2712/2812 36022G34KT 1SM -SN OVC012
      TEMPO 2712/2715 1/2SM SN FZFG BLSN VV006
     FM271600 34024G34KT 1SM -SN BLSN OVC015
     FM272200 33020G33KT 2SM -SN BLSN OVC020
     FM280200 33017G27KT 2SM -SHSN OVC035
     FM280500 33015G23KT P6SM SCT040 SCT100=

USA.gov is the U.S. government's official web portal to all federal, state and local government web resources and services.